Regional Weather Roundup
Issued by NWS

Home | Current Version | Previous Version | Text Only | Print | Product List | Glossary On
Versions: 1 2 3 4 5 6 7 8 9 10 11 12 13 14 15 16 17 18 19 20 21 22 23 24 25 26 27 28 29 30 31 32 33 34 35 36 37 38 39 40 41 42 43 44 45 46 47 48 49 50
905
ASUS43 KTOP 010008
RWRKS

WEATHER ROUNDUP FOR KANSAS
NATIONAL WEATHER SERVICE GOODLAND KS
700 PM CDT THU JUN 30 2016

NOTE:  "FAIR" INDICATES FEW OR NO CLOUDS BELOW 12,000 FEET WITH NO
SIGNIFICANT WEATHER AND/OR OBSTRUCTIONS TO VISIBILITY.

KSZ001>006-013>018-027>032-041>047-010100-
NORTHWEST KANSAS

CITY           SKY/WX    TMP DP  RH WIND       PRES   REMARKS
GOODLAND       PTSUNNY   80  59  48 E20G26    30.08S
6HR MIN TEMP:  80; 6HR MAX TEMP:  90;

HAYS           SUNNY     84  61  45 NE10      30.01S
HILL CITY      SUNNY     87  60  40 NE12      30.03F
6HR MIN TEMP:  84; 6HR MAX TEMP:  88;

RUSSELL        SUNNY     86  61  42 N13       29.98F
6HR MIN TEMP:  83; 6HR MAX TEMP:  87;

$$

KSZ061>065-074>080-084>089-010100-
SOUTHWEST KANSAS

CITY           SKY/WX    TMP DP  RH WIND       PRES   REMARKS
DODGE CITY     PTSUNNY   87  62  43 E10       29.99S
6HR MIN TEMP:  85; 6HR MAX TEMP:  93;

ELKHART          N/A     83  63  51 E9          N/A
GARDEN CITY    MOSUNNY   88  63  43 E14G21    30.00F
6HR MIN TEMP:  81; 6HR MAX TEMP:  90;

GREAT BEND     SUNNY     88  57  35 NE17      29.97S
LIBERAL        MOSUNNY   86  63  45 E7        30.01F
PRATT          SUNNY     88  60  39 E9        29.95F
6HR MIN TEMP:  84; 6HR MAX TEMP:  90;

$$

KSZ066>073-081>083-090>101-010100-
SOUTHEAST KANSAS

CITY           SKY/WX    TMP DP  RH WIND       PRES   REMARKS
CHANUTE        MOSUNNY   85  67  54 W13       29.92R
6HR MIN TEMP:  81; 6HR MAX TEMP:  91; 6HR PCP: TRACE;

COFFEYVILLE    PTSUNNY   78  63  59 SW6       29.92S
6HR MIN TEMP:  78; 6HR MAX TEMP:  96;

HUTCHINSON     SUNNY     91  63  39 N8        29.95S
6HR MIN TEMP:  90; 6HR MAX TEMP:  94;

MEDICINE LODGE   N/A     89  64  43 E7        29.92R
PARSONS        CLOUDY    79  64  60 W6        29.94R
6HR MIN TEMP:  79; 6HR MAX TEMP:  94;

WICHITA INTL   MOSUNNY   87  67  51 SE8       29.93S
6HR MIN TEMP:  85; 6HR MAX TEMP:  96;

WICHITA JABRA  MOSUNNY   85  68  56 S7        29.94F
6HR MIN TEMP:  84; 6HR MAX TEMP:  94;

WICHITA MCCONL SUNNY     85  67  56 S7        29.94F
WINFIELD       MOSUNNY   83  68  60 NE9       29.93F
6HR MIN TEMP:  80; 6HR MAX TEMP:  92; 6HR PCP: TRACE;

$$

KSZ007>012-019>026-033>040-048>060-102>105-010100-
NORTHEAST KANSAS

CITY           SKY/WX    TMP DP  RH WIND       PRES   REMARKS
CONCORDIA      SUNNY     86  61  42 N9        29.97F
6HR MIN TEMP:  83; 6HR MAX TEMP:  90;

EMPORIA        SUNNY     88  61  40 N8        29.93S
6HR MIN TEMP:  88; 6HR MAX TEMP:  94;

LAWRENCE       MOSUNNY   83  70  64 W5        29.92R
6HR MIN TEMP:  75; 6HR MAX TEMP:  91; 6HR PCP:  0.04;

MANHATTAN      SUNNY     88  62  41 N7G16     29.93S
6HR MIN TEMP:  87; 6HR MAX TEMP:  92;

MARYSVILLE     MOSUNNY   86  61  42 N9        29.94F
OLATHE IND     MOSUNNY   82  69  64 NW6       29.94R
6HR MIN TEMP:  75; 6HR MAX TEMP:  91;

OLATHE EXE     MOSUNNY   82  67  60 NW6       29.93R
6HR MIN TEMP:  70; 6HR MAX TEMP:  88; 6HR PCP:  0.09;

SALINA         SUNNY     92  54  27 N13       29.95S
6HR MIN TEMP:  90; 6HR MAX TEMP:  95;

TOPEKA BILLARD   N/A     86  68  54 CALM      29.92S
6HR MIN TEMP:  75; 6HR MAX TEMP:  91; 6HR PCP: TRACE;

TOPEKA FORBES  MOSUNNY   87  68  52 CALM      29.92S
6HR MIN TEMP:  72; 6HR MAX TEMP:  94; 6HR PCP:  0.22;

$$




USA.gov is the U.S. government's official web portal to all federal, state and local government web resources and services.